Regional Weather Roundup
Issued by NWS

Home | Current Version | Previous Version | Graphics & Text | Print | Product List | Glossary On
Versions: 1 2 3 4 5 6 7 8 9 10 11 12 13 14 15 16 17 18 19 20 21 22 23 24 25 26 27 28 29 30 31 32 33 34 35 36 37 38 39 40 41 42 43 44 45 46 47 48 49 50
000
ASUS43 KFSD 070210
RWRSD

WEATHER ROUNDUP FOR SOUTH DAKOTA
NATIONAL WEATHER SERVICE SIOUX FALLS SD
800 PM CST TUE DEC 06 2016

NOTE: "FAIR" INDICATES FEW OR NO CLOUDS BELOW 12,000 FEET WITH NO
SIGNIFICANT WEATHER AND/OR OBSTRUCTIONS TO VISIBILITY.


SDZ001>005-009-010-012>017-070300-
NORTHWEST AND NORTH CENTRAL SOUTH DAKOTA

CITY           SKY/WX    TMP DP  RH WIND       PRES   REMARKS
BUFFALO          N/A      6  -3  66 W32       30.00R WCI -18
FAITH            N/A      4  -1  80 NW21      30.07R WCI -17
MOBRIDGE       CLOUDY     9  -2  61 NW32G45   30.00R WCI -14
$$

SDZ012>016-024>037-041>051-057-063-072>074-070300-
SOUTHWEST AND SOUTH CENTRAL SOUTH DAKOTA

CITY           SKY/WX    TMP DP  RH WIND       PRES   REMARKS
RAPID CTY ARPT CLEAR      6  -1  73 N13       30.05R WCI -10
PIERRE         CLEAR     11   3  70 NW28G45   30.05S HAZE    WCI -10
CUSTER         CLOUDY     6  -8  52 CALM      29.86R
ELLSWORTH AFB  CLEAR      7  -1  70 N13       30.04R WCI  -9
PHILIP         CLEAR      9   0  67 NW24G30   30.10S WCI -12
PINE RIDGE     CLOUDY     3  -1  83 E5        30.05R WCI  -6
SPEARFISH      FAIR       5  -2  72 NW15      30.03R WCI -13
WINNER         FAIR      13   3  64 NW18G26   30.08R WCI  -4
$$

SDZ004>011-016>023-039-040-070300-
NORTHEAST SOUTH DAKOTA

CITY           SKY/WX    TMP DP  RH WIND       PRES   REMARKS
ABERDEEN       CLOUDY    11   2  67 NW30G39   29.94R WCI -11
WATERTOWN      LGT SNOW  10   6  84 W20G36    29.88R FOG     WCI  -9
BROOKINGS      CLEAR     10   4  76 W26G36    29.90S WCI -11
SISSETON         N/A     15   7  70 NW30G44   29.81R WCI  -5
$$

SDZ017-020-022-023-036>040-048>070-070300-
SOUTHEAST SOUTH DAKOTA

CITY           SKY/WX    TMP DP  RH WIND       PRES   REMARKS
SIOUX FALLS    FLURRIES  14   7  73 W22G32    29.99R WCI  -4
HURON          CLEAR     10   3  73 W23G30    30.03R WCI -10
CHAMBERLAIN    MOCLDY    13   5  69 W22G30    30.08R WCI  -5
MITCHELL       CLEAR     14   5  67 NW21G30   30.07R WCI  -4
YANKTON        CLEAR     18   5  57 W20       30.07R WCI   1
$$

ABBREVIATIONS USED IN REMARKS
   TC - TEMPERATURE IN CELSIUS
  WCI - WIND CHILL INDEX
   HX - HEAT INDEX
  VSB - VISIBILITY





USA.gov is the U.S. government's official web portal to all federal, state and local government web resources and services.